Home   Weather   Pamplona   Past weeks

Flag for Spain Past Weather in Pamplona, Spain — Yesterday and Last 2 Weeks

Now
79 °F

Passing clouds.


Feels Like: 79 °F
Forecast: 54 / 79 °F
Wind: 7 mph from South

Location: Pamplona / Noain

Current Time: Sep 29, 2016 at 3:48:11 PM

Latest Report: Sep 29, 2016 at 3:00 PM


Visibility: N/A

Pressure: 30.27 "Hg

Humidity: 30%

Dew Point: 45 °F

Location of PamplonaLocation

Past Weather in Pamplona — Graph

°F

Pamplona Temperature Yesterday

Maximum temperature yesterday: 79 °F (at 4:00 PM)
Minimum temperature yesterday: 54 °F (at 6:30 AM)
Average temperature yesterday: 66 °F

High & Low Weather Summary for the Past Weeks

 TemperatureHumidityPressure
High81 °F (Sep 24, 3:30 PM)100% (Sep 18, 2:00 AM)30.45 "Hg (Sep 18, 2:00 AM)
Low48 °F (Sep 21, 6:30 AM)30% (Sep 24, 4:00 PM)29.89 "Hg (Sep 14, 2:00 PM)
Average61 °F72%30.18 "Hg
* Reported Sep 14 2:00 PM — Sep 29 2:30 PM, Pamplona, Weather by CustomWeather, © 2016

Note: Actual official high and low records may vary slightly from our data, if they occured in-between our weather recording intervals... More about our weather records

Advertising

Pamplona Weather History for the Previous 24 Hours

Scroll right to see more
 ConditionsComfort  
Time TempWeatherWind HumidityBarometerVisibility
2:30 PM
Thu, Sep 29
77 °FPassing clouds.10 mph32%30.27 "HgN/A
2:00 PM77 °FSunny.6 mph34%30.30 "Hg10 mi
1:30 PM77 °FPassing clouds.10 mph32%30.30 "HgN/A
1:00 PM75 °FPassing clouds.8 mph34%30.33 "HgN/A
12:30 PM72 °FPassing clouds.7 mph41%30.33 "HgN/A
12:00 PM72 °FMild.5 mph41%30.33 "HgN/A
11:30 AM70 °FSunny.1 mph43%30.33 "Hg10 mi
11:00 AM68 °FSunny.No wind49%30.36 "Hg10 mi
10:30 AM68 °FMild.No wind46%30.36 "HgN/A
10:00 AM63 °FSunny.No wind59%30.36 "Hg10 mi
9:30 AM59 °FSunny.No wind68%30.36 "Hg10 mi
9:00 AM55 °FSunny.1 mph72%30.36 "Hg10 mi
8:30 AM52 °FSunny.2 mph77%30.36 "Hg10 mi
8:00 AM52 °FClear.2 mph82%30.33 "Hg10 mi
7:30 AM54 °FClear.2 mph77%30.33 "Hg10 mi
7:00 AM54 °FPassing clouds.3 mph72%30.36 "HgN/A
6:30 AM59 °FClear.2 mph59%30.36 "Hg10 mi
6:00 AM54 °FClear.1 mph72%30.36 "Hg10 mi
5:30 AM54 °FClear.1 mph77%30.36 "Hg10 mi
5:00 AM57 °FCool.2 mph67%30.36 "HgN/A
4:30 AM57 °FCool.2 mph67%30.36 "HgN/A
4:00 AM57 °FCool.2 mph67%30.36 "HgN/A
3:30 AM57 °FCool.1 mph67%30.39 "HgN/A
3:00 AM57 °FCool.1 mph67%30.39 "HgN/A
2:30 AM55 °FCool.No wind67%30.39 "HgN/A
2:00 AM57 °FCool.No wind63%30.39 "HgN/A
1:30 AM57 °FCool.No wind63%30.39 "HgN/A
1:00 AM59 °FCool.No wind63%30.39 "HgN/A
12:30 AM61 °FRefreshingly cool.1 mph59%30.39 "HgN/A
12:00 AM63 °FClear.No wind52%30.39 "Hg10 mi
11:30 PM
Wed, Sep 28
63 °FClear.1 mph52%30.39 "Hg10 mi
11:00 PM64 °FClear.7 mph49%30.39 "Hg10 mi
10:30 PM64 °FClear.No wind52%30.39 "Hg10 mi
10:00 PM68 °FClear.No wind46%30.39 "Hg10 mi
9:30 PM66 °FClear.2 mph52%30.39 "Hg10 mi
9:00 PM68 °FClear.2 mph49%30.39 "Hg10 mi
8:30 PM70 °FClear.1 mph50%30.36 "Hg10 mi
8:00 PM72 °FClear.2 mph47%30.36 "Hg10 mi
7:30 PM73 °FPassing clouds.7 mph44%30.36 "HgN/A
7:00 PM75 °FPassing clouds.7 mph41%30.36 "HgN/A
6:30 PM77 °FPassing clouds.10 mph39%30.36 "HgN/A
6:00 PM77 °FPassing clouds.10 mph39%30.36 "HgN/A
5:30 PM79 °FPassing clouds.7 mph34%30.39 "HgN/A
5:00 PM77 °FScattered clouds.6 mph39%30.36 "HgN/A
4:30 PM79 °FScattered clouds.9 mph37%30.39 "HgN/A
4:00 PM79 °FScattered clouds.10 mph37%30.39 "HgN/A
3:30 PM77 °FBroken clouds.13 mph39%30.39 "HgN/A
3:00 PM77 °FBroken clouds.13 mph44%30.39 "HgN/A
Weather by CustomWeather, © 2016

See weather overviewHow to use our weather pages